,,,PA_Meas_PMT16A,,PR_Meas_QMR101_102,,RH_Meas_QMH101,,SR_Meas_QMS101,,TA_Meas_QMH101,,GenWind,,GenWind,
date,time,status,PA,status,PR,status,RH,status,SR,status,TA,status,DirAvg,status,SpdAvg,
2008-10-15, 00:00:04,VALID,1009.85,VALID,0,VALID,94.0255,VALID,0.105969,VALID,24.3742,VALID,154,VALID,0,
2008-10-15, 00:01:04,VALID,1009.86,VALID,0,VALID,94.1171,VALID,0,VALID,24.3761,VALID,154,VALID,0,
2008-10-15, 00:02:04,VALID,1009.85,VALID,0,VALID,94.1552,VALID,0,VALID,24.3742,VALID,154,VALID,0,
2008-10-15, 00:03:04,VALID,1009.87,VALID,0,VALID,94.1552,VALID,0,VALID,24.3352,VALID,154,VALID,0,
2008-10-15, 00:04:04,VALID,1009.87,VALID,0,VALID,94.1628,VALID,0,VALID,24.3158,VALID,154,VALID,0,
2008-10-15, 00:05:04,VALID,1009.85,VALID,0,VALID,94.1933,VALID,0,VALID,24.3176,VALID,154,VALID,0,
2008-10-15, 00:06:04,VALID,1009.88,VALID,0,VALID,94.2009,VALID,0,VALID,24.3371,VALID,154,VALID,0,
2008-10-15, 00:07:04,VALID,1009.88,VALID,0,VALID,94.2162,VALID,0,VALID,24.2981,VALID,154,VALID,0,
2008-10-15, 00:08:04,VALID,1009.89,VALID,0,VALID,94.2086,VALID,0,VALID,24.2786,VALID,154,VALID,0,
2008-10-15, 00:09:04,VALID,1009.89,VALID,0,VALID,94.2314,VALID,0,VALID,24.2981,VALID,154,VALID,0,
2008-10-15, 00:10:04,VALID,1009.91,VALID,0,VALID,94.2467,VALID,0,VALID,24.2591,VALID,154,VALID,0,
2008-10-15, 00:11:04,VALID,1009.92,VALID,0,VALID,94.2924,VALID,0,VALID,24.2378,VALID,154,VALID,0,
2008-10-15, 00:12:04,VALID,1009.94,VALID,0,VALID,94.3229,VALID,0,VALID,24.2396,VALID,154,VALID,0,
2008-10-15, 00:13:04,VALID,1009.96,VALID,0,VALID,94.3534,VALID,0,VALID,24.2396,VALID,154,VALID,0,
2008-10-15, 00:14:04,VALID,1009.93,VALID,0,VALID,94.3687,VALID,0,VALID,24.2396,VALID,154,VALID,0,
2008-10-15, 00:15:04,VALID,1009.94,VALID,0,VALID,94.3839,VALID,0,VALID,24.2396,VALID,95,VALID,0.410156,
2008-10-15, 00:16:04,VALID,1009.95,VALID,0,VALID,94.4526,VALID,0,VALID,24.2396,VALID,92,VALID,0.376563,
2008-10-15, 00:17:04,VALID,1009.98,VALID,0,VALID,94.4831,VALID,0,VALID,24.2591,VALID,92,VALID,0.385938,
2008-10-15, 00:18:04,VALID,1009.95,VALID,0,VALID,94.4831,VALID,0,VALID,24.2378,VALID,92,VALID,0.213281,
2008-10-15, 00:19:04,VALID,1009.98,VALID,0,VALID,94.567,VALID,0,VALID,24.2981,VALID,92,VALID,0.177344,
2008-10-15, 00:20:04,VALID,1010.01,VALID,0,VALID,94.5975,VALID,0,VALID,24.2786,VALID,92,VALID,0.200391,
2008-10-15, 00:21:04,VALID,1010.04,VALID,0,VALID,94.6508,VALID,0,VALID,24.3176,VALID,92,VALID,0.138672,
2008-10-15, 00:22:04,VALID,1010.01,VALID,0,VALID,94.6432,VALID,0,VALID,24.2573,VALID,92,VALID,0.0867188,
2008-10-15, 00:23:04,VALID,1010.02,VALID,0,VALID,94.628,VALID,0,VALID,24.2786,VALID,92,VALID,0,
2008-10-15, 00:24:04,VALID,1010.01,VALID,0,VALID,94.628,VALID,0,VALID,24.2786,VALID,92,VALID,0.264453,
2008-10-15, 00:25:04,VALID,1009.99,VALID,0,VALID,94.628,VALID,0,VALID,24.2573,VALID,92,VALID,0.270703,
2008-10-15, 00:26:04,VALID,1009.99,VALID,0,VALID,94.6203,VALID,0,VALID,24.2573,VALID,92,VALID,0.126953,
2008-10-15, 00:27:04,VALID,1009.98,VALID,0,VALID,94.628,VALID,0,VALID,24.2591,VALID,92,VALID,0.152734,
2008-10-15, 00:28:04,VALID,1009.96,VALID,0,VALID,94.6051,VALID,0,VALID,24.2591,VALID,92,VALID,0.194141,
2008-10-15, 00:29:04,VALID,1009.96,VALID,0,VALID,94.567,VALID,0,VALID,24.2378,VALID,91,VALID,0.183594,
2008-10-15, 00:30:04,VALID,1009.92,VALID,0,VALID,94.5898,VALID,0,VALID,24.2591,VALID,91,VALID,0.148438,
2008-10-15, 00:31:04,VALID,1009.95,VALID,0,VALID,94.5822,VALID,0,VALID,24.2396,VALID,91,VALID,0.230469,
2008-10-15, 00:32:04,VALID,1009.93,VALID,0,VALID,94.5822,VALID,0,VALID,24.2396,VALID,91,VALID,0.119531,
2008-10-15, 00:33:04,VALID,1009.94,VALID,0,VALID,94.5517,VALID,0,VALID,24.2183,VALID,91,VALID,0.124219,
2008-10-15, 00:34:04,VALID,1009.94,VALID,0,VALID,94.5822,VALID,0,VALID,24.2396,VALID,91,VALID,0.2,
2008-10-15, 00:35:04,VALID,1009.94,VALID,0,VALID,94.5746,VALID,0,VALID,24.2396,VALID,91,VALID,0.167578,
2008-10-15, 00:36:04,VALID,1009.95,VALID,0,VALID,94.5975,VALID,0,VALID,24.2202,VALID,91,VALID,0.187891,
2008-10-15, 00:37:04,VALID,1009.95,VALID,0,VALID,94.6127,VALID,0.105969,VALID,24.2183,VALID,91,VALID,0.148828,
2008-10-15, 00:38:04,VALID,1009.91,VALID,0,VALID,94.6051,VALID,0,VALID,24.2396,VALID,91,VALID,0.179688,
2008-10-15, 00:39:04,VALID,1009.89,VALID,0,VALID,94.628,VALID,0,VALID,24.2202,VALID,91,VALID,0.128125,
2008-10-15, 00:40:04,VALID,1009.88,VALID,0,VALID,94.6585,VALID,0,VALID,24.2396,VALID,91,VALID,0.101563,
2008-10-15, 00:41:04,VALID,1009.83,VALID,0,VALID,94.6737,VALID,0,VALID,24.2396,VALID,91,VALID,0.292188,
2008-10-15, 00:42:04,VALID,1009.79,VALID,0,VALID,94.628,VALID,0,VALID,24.2202,VALID,91,VALID,0.10625,
2008-10-15, 00:43:04,VALID,1009.78,VALID,0,VALID,94.6737,VALID,0,VALID,24.2591,VALID,91,VALID,0.194141,
2008-10-15, 00:44:04,VALID,1009.69,VALID,0,VALID,94.6051,VALID,0,VALID,24.2396,VALID,91,VALID,0,
2008-10-15, 00:45:04,VALID,1009.67,VALID,0,VALID,94.6203,VALID,0,VALID,24.2396,VALID,335,VALID,0.408594,
2008-10-15, 00:46:04,VALID,1009.64,VALID,0,VALID,94.6432,VALID,0,VALID,24.2786,VALID,323,VALID,0.331641,
2008-10-15, 00:47:04,VALID,1009.64,VALID,0,VALID,94.6356,VALID,0,VALID,24.2786,VALID,323,VALID,0.0738281,
2008-10-15, 00:48:04,VALID,1009.58,VALID,0,VALID,94.628,VALID,0,VALID,24.2591,VALID,323,VALID,0.236719,
2008-10-15, 00:49:04,VALID,1009.54,VALID,0,VALID,94.6203,VALID,0,VALID,24.2786,VALID,323,VALID,0.337891,
2008-10-15, 00:50:04,VALID,1009.51,VALID,0,VALID,94.6203,VALID,0,VALID,24.2591,VALID,323,VALID,0.182422,
2008-10-15, 00:51:04,VALID,1009.51,VALID,0,VALID,94.6127,VALID,0,VALID,24.2396,VALID,323,VALID,0.187109,
2008-10-15, 00:52:04,VALID,1009.49,VALID,0,VALID,94.6203,VALID,0,VALID,24.2591,VALID,323,VALID,0.135547,
2008-10-15, 00:53:04,VALID,1009.47,VALID,0,VALID,94.6203,VALID,0,VALID,24.2396,VALID,323,VALID,0.233594,
2008-10-15, 00:54:04,VALID,1009.46,VALID,0,VALID,94.6127,VALID,0,VALID,24.2202,VALID,323,VALID,0.265625,
2008-10-15, 00:55:04,VALID,1009.44,VALID,0,VALID,94.6432,VALID,0,VALID,24.2396,VALID,323,VALID,0.260156,
2008-10-15, 00:56:04,VALID,1009.45,VALID,0,VALID,94.628,VALID,0,VALID,24.2396,VALID,323,VALID,0.199609,
2008-10-15, 00:57:04,VALID,1009.44,VALID,0,VALID,94.6508,VALID,0,VALID,24.2396,VALID,323,VALID,0.284375,
2008-10-15, 00:58:04,VALID,1009.41,VALID,0,VALID,94.6814,VALID,0,VALID,24.2396,VALID,323,VALID,0.252344,
2008-10-15, 00:59:04,VALID,1009.4,VALID,0,VALID,94.6966,VALID,0,VALID,24.2202,VALID,319,VALID,0.213672,
2008-10-15, 01:00:04,VALID,1009.39,VALID,0,VALID,94.7195,VALID,0,VALID,24.2396,VALID,319,VALID,0.196875,
2008-10-15, 01:01:04,VALID,1009.38,VALID,0,VALID,94.7042,VALID,0,VALID,24.2396,VALID,319,VALID,0,
2008-10-15, 01:02:04,VALID,1009.41,VALID,0,VALID,94.7195,VALID,0,VALID,24.2396,VALID,319,VALID,0,
2008-10-15, 01:03:04,VALID,1009.41,VALID,0,VALID,94.7424,VALID,0,VALID,24.2396,VALID,319,VALID,0,
2008-10-15, 01:04:04,VALID,1009.41,VALID,0,VALID,94.7271,VALID,0,VALID,24.2183,VALID,319,VALID,0,
2008-10-15, 01:05:04,VALID,1009.43,VALID,0,VALID,94.75,VALID,0,VALID,24.2396,VALID,319,VALID,0,
2008-10-15, 01:06:04,VALID,1009.43,VALID,0,VALID,94.7576,VALID,0,VALID,24.2202,VALID,319,VALID,0,
2008-10-15, 01:07:04,VALID,1009.4,VALID,0,VALID,94.7729,VALID,0,VALID,24.2396,VALID,319,VALID,0,
2008-10-15, 01:08:04,VALID,1009.39,VALID,0,VALID,94.811,VALID,0,VALID,24.2396,VALID,319,VALID,0,
2008-10-15, 01:09:04,VALID,1009.38,VALID,0,VALID,94.7957,VALID,0,VALID,24.2591,VALID,319,VALID,0,
2008-10-15, 01:10:04,VALID,1009.32,VALID,0,VALID,94.8262,VALID,0,VALID,24.2591,VALID,318,VALID,0,
2008-10-15, 01:11:04,VALID,1009.32,VALID,0,VALID,94.811,VALID,0,VALID,24.2378,VALID,273,VALID,0.235938,
2008-10-15, 01:12:04,VALID,1009.29,VALID,0,VALID,94.8339,VALID,0,VALID,24.2786,VALID,242,VALID,0.335156,
2008-10-15, 01:13:04,VALID,1009.23,VALID,0,VALID,94.8186,VALID,0,VALID,24.3176,VALID,239,VALID,0.0933594,
2008-10-15, 01:14:04,VALID,1009.21,VALID,0,VALID,94.8262,VALID,0,VALID,24.3371,VALID,239,VALID,0,
2008-10-15, 01:15:04,VALID,1009.18,VALID,0,VALID,94.8339,VALID,0,VALID,24.3176,VALID,239,VALID,0.0628906,
2008-10-15, 01:16:04,VALID,1009.14,VALID,0,VALID,94.811,VALID,0,VALID,24.2768,VALID,291,VALID,0.333984,
2008-10-15, 01:17:04,VALID,1009.11,VALID,0,VALID,94.7881,VALID,0,VALID,24.3176,VALID,291,VALID,0.294531,
2008-10-15, 01:18:04,VALID,1009.09,VALID,0,VALID,94.7805,VALID,0,VALID,24.3176,VALID,337,VALID,0.469141,
2008-10-15, 01:19:04,VALID,1009.02,VALID,0,VALID,94.7347,VALID,0,VALID,24.3176,VALID,347,VALID,0.341016,
2008-10-15, 01:20:04,VALID,1009.01,VALID,0,VALID,94.7119,VALID,0,VALID,24.2981,VALID,347,VALID,0.388281,
2008-10-15, 01:21:04,VALID,1008.99,VALID,0,VALID,94.7119,VALID,0,VALID,24.2591,VALID,347,VALID,0.275391,
2008-10-15, 01:22:04,VALID,1009.01,VALID,0,VALID,94.6814,VALID,0,VALID,24.2768,VALID,353,VALID,0.442969,
2008-10-15, 01:23:04,VALID,1008.97,VALID,0,VALID,94.6508,VALID,0,VALID,24.2183,VALID,5,VALID,0.3625,
2008-10-15, 01:24:04,VALID,1008.98,VALID,0,VALID,94.6508,VALID,0,VALID,24.2202,VALID,5,VALID,0.217969,
2008-10-15, 01:25:04,VALID,1008.99,VALID,0,VALID,94.6356,VALID,0,VALID,24.2007,VALID,5,VALID,0.306641,
2008-10-15, 01:26:04,VALID,1008.99,VALID,0,VALID,94.6508,VALID,0,VALID,24.2007,VALID,5,VALID,0.0917969,
2008-10-15, 01:27:04,VALID,1008.95,VALID,0,VALID,94.6203,VALID,0,VALID,24.1812,VALID,5,VALID,0.160938,
2008-10-15, 01:28:04,VALID,1008.95,VALID,0,VALID,94.6432,VALID,0,VALID,24.1599,VALID,5,VALID,0,
2008-10-15, 01:29:04,VALID,1008.94,VALID,0,VALID,94.628,VALID,0,VALID,24.1617,VALID,5,VALID,0,
2008-10-15, 01:30:04,VALID,1008.93,VALID,0,VALID,94.628,VALID,0.105969,VALID,24.1812,VALID,5,VALID,0,
2008-10-15, 01:31:04,VALID,1008.92,VALID,0,VALID,94.6432,VALID,0,VALID,24.1404,VALID,5,VALID,0.065625,
2008-10-15, 01:32:04,VALID,1008.93,VALID,0,VALID,94.6432,VALID,0,VALID,24.1812,VALID,5,VALID,0,
2008-10-15, 01:33:04,VALID,1008.93,VALID,0,VALID,94.6508,VALID,0,VALID,24.1617,VALID,5,VALID,0.188672,
2008-10-15, 01:34:04,VALID,1008.95,VALID,0,VALID,94.6661,VALID,0,VALID,24.1812,VALID,5,VALID,0.232422,
2008-10-15, 01:35:04,VALID,1008.91,VALID,0,VALID,94.6737,VALID,0,VALID,24.1227,VALID,5,VALID,0.29375,
2008-10-15, 01:36:04,VALID,1008.93,VALID,0,VALID,94.6737,VALID,0,VALID,24.1422,VALID,5,VALID,0.213281,
2008-10-15, 01:37:04,VALID,1008.91,VALID,0,VALID,94.6661,VALID,0,VALID,24.1032,VALID,5,VALID,0.226953,
2008-10-15, 01:38:04,VALID,1008.86,VALID,0,VALID,94.6432,VALID,0,VALID,24.1227,VALID,5,VALID,0.0585938,
2008-10-15, 01:39:04,VALID,1008.89,VALID,0,VALID,94.6585,VALID,0,VALID,24.1032,VALID,5,VALID,0.202734,
2008-10-15, 01:40:04,VALID,1008.86,VALID,0,VALID,94.6585,VALID,0.105969,VALID,24.1032,VALID,5,VALID,0.0554687,
2008-10-15, 01:41:04,VALID,1008.84,VALID,0,VALID,94.6585,VALID,0,VALID,24.1032,VALID,5,VALID,0.278125,
2008-10-15, 01:42:04,VALID,1008.87,VALID,0,VALID,94.6585,VALID,0.105969,VALID,24.0837,VALID,5,VALID,0.124609,
2008-10-15, 01:43:04,VALID,1008.87,VALID,0,VALID,94.6737,VALID,0,VALID,24.0429,VALID,5,VALID,0.119531,
2008-10-15, 01:44:04,VALID,1008.85,VALID,0,VALID,94.6814,VALID,0,VALID,24.0448,VALID,5,VALID,0.182422,
2008-10-15, 01:45:04,VALID,1008.84,VALID,0,VALID,94.6737,VALID,0,VALID,24.0253,VALID,5,VALID,0.164844,
2008-10-15, 01:46:04,VALID,1008.86,VALID,0,VALID,94.6966,VALID,0,VALID,24.0058,VALID,5,VALID,0.186719,
2008-10-15, 01:47:04,VALID,1008.85,VALID,0,VALID,94.7042,VALID,0,VALID,24.0058,VALID,5,VALID,0.0269531,
2008-10-15, 01:48:04,VALID,1008.84,VALID,0,VALID,94.6966,VALID,0,VALID,23.9863,VALID,5,VALID,0.159375,
2008-10-15, 01:49:04,VALID,1008.86,VALID,0,VALID,94.7195,VALID,0,VALID,23.9863,VALID,5,VALID,0.181641,
2008-10-15, 01:50:04,VALID,1008.89,VALID,0,VALID,94.7119,VALID,0,VALID,23.9863,VALID,5,VALID,0.317578,
2008-10-15, 01:51:04,VALID,1008.88,VALID,0,VALID,94.7347,VALID,0,VALID,23.9863,VALID,5,VALID,0.172656,
2008-10-15, 01:52:04,VALID,1008.9,VALID,0,VALID,94.7729,VALID,0,VALID,24.0058,VALID,5,VALID,0.119922,
2008-10-15, 01:53:04,VALID,1008.94,VALID,0,VALID,94.7957,VALID,0,VALID,24.0253,VALID,5,VALID,0.123828,
2008-10-15, 01:54:04,VALID,1008.96,VALID,0,VALID,94.8339,VALID,0,VALID,24.0253,VALID,5,VALID,0.19375,
2008-10-15, 01:55:04,VALID,1008.96,VALID,0,VALID,94.8415,VALID,0,VALID,24.0235,VALID,5,VALID,0.327734,
2008-10-15, 01:56:04,VALID,1008.97,VALID,0,VALID,94.8644,VALID,0,VALID,24.0448,VALID,39,VALID,0.350781,
2008-10-15, 01:57:04,VALID,1008.98,VALID,0,VALID,94.8491,VALID,0,VALID,24.0643,VALID,100,VALID,0.735937,
2008-10-15, 01:58:04,VALID,1008.99,VALID,0,VALID,94.9101,VALID,0,VALID,24.0819,VALID,106,VALID,0.697266,
2008-10-15, 01:59:04,VALID,1008.98,VALID,0,VALID,94.8796,VALID,0,VALID,24.1032,VALID,101,VALID,0.788672,
2008-10-15, 02:00:04,VALID,1009,VALID,0,VALID,94.8949,VALID,0,VALID,24.1032,VALID,100,VALID,0.658203,
2008-10-15, 02:01:04,VALID,1009.02,VALID,0,VALID,94.8415,VALID,0,VALID,24.1227,VALID,105,VALID,0.894531,
2008-10-15, 02:02:04,VALID,1009.02,VALID,0,VALID,94.811,VALID,0,VALID,24.1617,VALID,116,VALID,0.662109,
2008-10-15, 02:03:04,VALID,1009.04,VALID,0,VALID,94.75,VALID,0,VALID,24.1422,VALID,103,VALID,1.06367,
2008-10-15, 02:04:04,VALID,1009.02,VALID,0,VALID,94.7119,VALID,0,VALID,24.1617,VALID,108,VALID,0.877344,
2008-10-15, 02:05:04,VALID,1009.01,VALID,0,VALID,94.6585,VALID,0,VALID,24.1422,VALID,101,VALID,0.871875,
2008-10-15, 02:06:04,VALID,1008.99,VALID,0,VALID,94.628,VALID,0.105969,VALID,24.1209,VALID,108,VALID,0.478125,
2008-10-15, 02:07:04,VALID,1008.99,VALID,0,VALID,94.5975,VALID,0,VALID,24.1422,VALID,127,VALID,0.585156,
2008-10-15, 02:08:04,VALID,1009,VALID,0,VALID,94.5898,VALID,0,VALID,24.1422,VALID,144,VALID,0.43125,
2008-10-15, 02:09:04,VALID,1009.03,VALID,0,VALID,94.5517,VALID,0,VALID,24.1422,VALID,133,VALID,0.469922,
2008-10-15, 02:10:04,VALID,1009.03,VALID,0,VALID,94.5288,VALID,0,VALID,24.1227,VALID,133,VALID,0.320703,
2008-10-15, 02:11:04,VALID,1009.02,VALID,0,VALID,94.4983,VALID,0,VALID,24.0837,VALID,146,VALID,0.717969,
2008-10-15, 02:12:04,VALID,1009.05,VALID,0,VALID,94.4755,VALID,0,VALID,24.0624,VALID,137,VALID,0.961328,
2008-10-15, 02:13:04,VALID,1009.03,VALID,0,VALID,94.4678,VALID,0,VALID,24.0429,VALID,129,VALID,0.819531,
2008-10-15, 02:14:04,VALID,1009.03,VALID,0,VALID,94.4907,VALID,0,VALID,24.0448,VALID,127,VALID,0.832031,
2008-10-15, 02:15:04,VALID,1009.05,VALID,0,VALID,94.5136,VALID,0,VALID,24.0253,VALID,114,VALID,0.683203,
2008-10-15, 02:16:04,VALID,1009.05,VALID,0,VALID,94.5517,VALID,0.105969,VALID,24.0253,VALID,95,VALID,0.998047,
2008-10-15, 02:17:04,VALID,1009.03,VALID,0,VALID,94.6051,VALID,0,VALID,24.0448,VALID,100,VALID,0.592188,
2008-10-15, 02:18:04,VALID,1009.04,VALID,0,VALID,94.6356,VALID,0,VALID,24.0235,VALID,72,VALID,0.735937,
2008-10-15, 02:19:04,VALID,1009,VALID,0,VALID,94.6661,VALID,0,VALID,24.004,VALID,68,VALID,0.582812,
2008-10-15, 02:20:04,VALID,1009.02,VALID,0,VALID,94.6737,VALID,0,VALID,24.0058,VALID,58,VALID,0.545703,
2008-10-15, 02:21:04,VALID,1009.01,VALID,0,VALID,94.6661,VALID,0,VALID,23.965,VALID,81,VALID,0.550781,
2008-10-15, 02:22:04,VALID,1009.02,VALID,0,VALID,94.6966,VALID,0,VALID,23.9473,VALID,71,VALID,0.644141,
2008-10-15, 02:23:04,VALID,1009.01,VALID,0,VALID,94.7119,VALID,0,VALID,23.9473,VALID,70,VALID,0.402734,
2008-10-15, 02:24:04,VALID,1009.04,VALID,0,VALID,94.7347,VALID,0,VALID,23.9455,VALID,78,VALID,0.578906,
2008-10-15, 02:25:04,VALID,1009.03,VALID,0,VALID,94.7576,VALID,0,VALID,23.9278,VALID,78,VALID,0.209375,
2008-10-15, 02:26:04,VALID,1009.06,VALID,0,VALID,94.8034,VALID,0,VALID,23.9473,VALID,78,VALID,0.383984,
2008-10-15, 02:27:04,VALID,1009.04,VALID,0,VALID,94.8415,VALID,0,VALID,23.9278,VALID,99,VALID,0.607813,
2008-10-15, 02:28:04,VALID,1009.05,VALID,0,VALID,94.8568,VALID,0,VALID,23.9065,VALID,107,VALID,0.507031,
2008-10-15, 02:29:04,VALID,1009.05,VALID,0,VALID,94.8873,VALID,0,VALID,23.9278,VALID,130,VALID,0.541016,
2008-10-15, 02:30:04,VALID,1009.09,VALID,0,VALID,94.8949,VALID,0,VALID,23.926,VALID,117,VALID,0.390234,
2008-10-15, 02:31:04,VALID,1009.13,VALID,0,VALID,94.9254,VALID,0,VALID,23.9065,VALID,159,VALID,0.637109,
2008-10-15, 02:32:04,VALID,1009.13,VALID,0,VALID,94.933,VALID,0,VALID,23.8676,VALID,147,VALID,0.620313,
2008-10-15, 02:33:04,VALID,1009.15,VALID,0,VALID,94.933,VALID,0,VALID,23.8694,VALID,144,VALID,0.632422,
2008-10-15, 02:34:04,VALID,1009.21,VALID,0,VALID,94.9483,VALID,0,VALID,23.8889,VALID,131,VALID,0.479688,
2008-10-15, 02:35:04,VALID,1009.22,VALID,0,VALID,94.9254,VALID,0,VALID,23.8499,VALID,131,VALID,0.600391,
2008-10-15, 02:36:04,VALID,1009.25,VALID,0,VALID,94.9635,VALID,0,VALID,23.7896,VALID,124,VALID,0.564844,
2008-10-15, 02:37:04,VALID,1009.23,VALID,0,VALID,94.9711,VALID,0,VALID,23.8109,VALID,132,VALID,0.422266,
2008-10-15, 02:38:04,VALID,1009.27,VALID,0,VALID,94.9635,VALID,0,VALID,23.772,VALID,137,VALID,0.403906,
2008-10-15, 02:39:04,VALID,1009.28,VALID,0,VALID,95.0093,VALID,0,VALID,23.772,VALID,136,VALID,0.325,
2008-10-15, 02:40:04,VALID,1009.26,VALID,0,VALID,95.0169,VALID,0,VALID,23.772,VALID,135,VALID,0.192578,
2008-10-15, 02:41:04,VALID,1009.27,VALID,0,VALID,95.0093,VALID,0,VALID,23.7525,VALID,140,VALID,0.141797,
2008-10-15, 02:42:04,VALID,1009.27,VALID,0,VALID,95.0398,VALID,0,VALID,23.733,VALID,140,VALID,0.156641,
2008-10-15, 02:43:04,VALID,1009.28,VALID,0,VALID,95.0321,VALID,0,VALID,23.7525,VALID,140,VALID,0,
2008-10-15, 02:44:04,VALID,1009.3,VALID,0,VALID,95.0779,VALID,0,VALID,23.733,VALID,140,VALID,0,
2008-10-15, 02:45:04,VALID,1009.3,VALID,0,VALID,95.0855,VALID,0,VALID,23.7135,VALID,140,VALID,0,
2008-10-15, 02:46:04,VALID,1009.32,VALID,0,VALID,95.1084,VALID,0,VALID,23.733,VALID,94,VALID,0.317969,
2008-10-15, 02:47:04,VALID,1009.28,VALID,0,VALID,95.1389,VALID,0,VALID,23.733,VALID,63,VALID,0.322656,
2008-10-15, 02:48:04,VALID,1009.3,VALID,0,VALID,95.1389,VALID,0,VALID,23.733,VALID,52,VALID,0.499609,
2008-10-15, 02:49:04,VALID,1009.33,VALID,0,VALID,95.1389,VALID,0,VALID,23.7117,VALID,52,VALID,0.296484,
2008-10-15, 02:50:04,VALID,1009.31,VALID,0,VALID,95.1389,VALID,0,VALID,23.7135,VALID,52,VALID,0.270703,
2008-10-15, 02:51:04,VALID,1009.33,VALID,0,VALID,95.1465,VALID,0,VALID,23.694,VALID,52,VALID,0.476563,
2008-10-15, 02:52:04,VALID,1009.3,VALID,0,VALID,95.1694,VALID,0,VALID,23.6922,VALID,44,VALID,0.363672,
2008-10-15, 02:53:04,VALID,1009.34,VALID,0,VALID,95.1847,VALID,0,VALID,23.7135,VALID,44,VALID,0.616406,
2008-10-15, 02:54:04,VALID,1009.37,VALID,0,VALID,95.1923,VALID,0,VALID,23.6727,VALID,68,VALID,0.695313,
2008-10-15, 02:55:04,VALID,1009.37,VALID,0,VALID,95.2075,VALID,0.105969,VALID,23.7117,VALID,77,VALID,0.601172,
2008-10-15, 02:56:04,VALID,1009.36,VALID,0,VALID,95.2228,VALID,0,VALID,23.7135,VALID,74,VALID,0.611328,
2008-10-15, 02:57:04,VALID,1009.37,VALID,0,VALID,95.2304,VALID,0,VALID,23.6922,VALID,74,VALID,0.489453,
2008-10-15, 02:58:04,VALID,1009.36,VALID,0,VALID,95.2533,VALID,0.105969,VALID,23.7117,VALID,74,VALID,0.140234,
2008-10-15, 02:59:04,VALID,1009.37,VALID,0,VALID,95.2685,VALID,0.105969,VALID,23.7312,VALID,74,VALID,0.122656,
2008-10-15, 03:00:04,VALID,1009.34,VALID,0,VALID,95.2609,VALID,0.105969,VALID,23.6922,VALID,71,VALID,0.444141,
2008-10-15, 03:01:04,VALID,1009.36,VALID,0,VALID,95.2762,VALID,0.105969,VALID,23.7312,VALID,71,VALID,0.223828,
2008-10-15, 03:02:04,VALID,1009.34,VALID,0,VALID,95.2838,VALID,0.105969,VALID,23.7896,VALID,71,VALID,0.344922,
2008-10-15, 03:03:04,VALID,1009.35,VALID,0,VALID,95.2762,VALID,0,VALID,23.7507,VALID,71,VALID,0.225781,
2008-10-15, 03:04:04,VALID,1009.34,VALID,0,VALID,95.299,VALID,0.105969,VALID,23.7507,VALID,75,VALID,0.695313,
2008-10-15, 03:05:04,VALID,1009.33,VALID,0,VALID,95.2914,VALID,0.105969,VALID,23.772,VALID,75,VALID,0.380078,
2008-10-15, 03:06:04,VALID,1009.34,VALID,0,VALID,95.299,VALID,0.105969,VALID,23.7896,VALID,86,VALID,0.498828,
2008-10-15, 03:07:04,VALID,1009.32,VALID,0,VALID,95.2685,VALID,0,VALID,23.772,VALID,94,VALID,0.746094,
2008-10-15, 03:08:04,VALID,1009.31,VALID,0,VALID,95.2838,VALID,0.105969,VALID,23.7525,VALID,94,VALID,0.424609,
2008-10-15, 03:09:04,VALID,1009.34,VALID,0,VALID,95.299,VALID,0.105969,VALID,23.7914,VALID,78,VALID,0.599219,
2008-10-15, 03:10:04,VALID,1009.36,VALID,0,VALID,95.2914,VALID,0.105969,VALID,23.8304,VALID,81,VALID,0.408203,
2008-10-15, 03:11:04,VALID,1009.37,VALID,0,VALID,95.299,VALID,0.105969,VALID,23.8286,VALID,102,VALID,0.674219,
2008-10-15, 03:12:04,VALID,1009.37,VALID,0,VALID,95.2838,VALID,0.105969,VALID,23.8304,VALID,79,VALID,0.529688,
2008-10-15, 03:13:04,VALID,1009.37,VALID,0,VALID,95.2762,VALID,0,VALID,23.8304,VALID,78,VALID,0.540625,
2008-10-15, 03:14:04,VALID,1009.36,VALID,0,VALID,95.2609,VALID,0,VALID,23.8091,VALID,77,VALID,0.619922,
2008-10-15, 03:15:04,VALID,1009.39,VALID,0,VALID,95.2609,VALID,0,VALID,23.8304,VALID,87,VALID,0.582422,
2008-10-15, 03:16:04,VALID,1009.36,VALID,0,VALID,95.2533,VALID,0.105969,VALID,23.8286,VALID,90,VALID,0.653906,
2008-10-15, 03:17:04,VALID,1009.34,VALID,0,VALID,95.238,VALID,0.105969,VALID,23.7896,VALID,96,VALID,0.559375,
2008-10-15, 03:18:04,VALID,1009.35,VALID,0,VALID,95.2685,VALID,0,VALID,23.8304,VALID,105,VALID,0.571094,
2008-10-15, 03:19:04,VALID,1009.33,VALID,0,VALID,95.2304,VALID,0,VALID,23.8286,VALID,154,VALID,0.729688,
2008-10-15, 03:20:04,VALID,1009.33,VALID,0,VALID,95.2228,VALID,0.105969,VALID,23.8694,VALID,164,VALID,0.734375,
2008-10-15, 03:21:04,VALID,1009.32,VALID,0,VALID,95.2075,VALID,0.105969,VALID,23.8694,VALID,176,VALID,0.808594,
2008-10-15, 03:22:04,VALID,1009.32,VALID,0,VALID,95.1694,VALID,0,VALID,23.8304,VALID,170,VALID,1.01758,
2008-10-15, 03:23:04,VALID,1009.31,VALID,0,VALID,95.1542,VALID,0,VALID,23.8304,VALID,165,VALID,0.838672,
2008-10-15, 03:24:04,VALID,1009.31,VALID,0,VALID,95.1618,VALID,0,VALID,23.8109,VALID,150,VALID,0.783203,
2008-10-15, 03:25:04,VALID,1009.31,VALID,0,VALID,95.1465,VALID,0.105969,VALID,23.8109,VALID,160,VALID,0.845703,
2008-10-15, 03:26:04,VALID,1009.3,VALID,0,VALID,95.1236,VALID,0,VALID,23.7896,VALID,150,VALID,0.512109,
2008-10-15, 03:27:04,VALID,1009.26,VALID,0,VALID,95.1008,VALID,0,VALID,23.7896,VALID,167,VALID,1.11484,
2008-10-15, 03:28:04,VALID,1009.26,VALID,0,VALID,95.1084,VALID,0,VALID,23.772,VALID,164,VALID,0.815625,
2008-10-15, 03:29:04,VALID,1009.24,VALID,0,VALID,95.0855,VALID,0.105969,VALID,23.8109,VALID,142,VALID,0.530859,
2008-10-15, 03:30:04,VALID,1009.22,VALID,0,VALID,95.0779,VALID,0,VALID,23.7914,VALID,131,VALID,0.84375,
2008-10-15, 03:31:04,VALID,1009.18,VALID,0,VALID,95.055,VALID,0,VALID,23.7914,VALID,136,VALID,0.526563,
2008-10-15, 03:32:04,VALID,1009.18,VALID,0,VALID,95.0703,VALID,0,VALID,23.7914,VALID,140,VALID,0.528906,
2008-10-15, 03:33:04,VALID,1009.17,VALID,0,VALID,95.0779,VALID,0.105969,VALID,23.7701,VALID,128,VALID,0.314844,
2008-10-15, 03:34:04,VALID,1009.15,VALID,0,VALID,95.0855,VALID,0,VALID,23.7914,VALID,156,VALID,0.472656,
2008-10-15, 03:35:04,VALID,1009.16,VALID,0,VALID,95.0626,VALID,0.105969,VALID,23.7896,VALID,119,VALID,0.559766,
2008-10-15, 03:36:04,VALID,1009.17,VALID,0,VALID,95.0474,VALID,0,VALID,23.733,VALID,100,VALID,0.479688,
2008-10-15, 03:37:04,VALID,1009.16,VALID,0,VALID,95.0321,VALID,0,VALID,23.7525,VALID,80,VALID,0.717969,
2008-10-15, 03:38:04,VALID,1009.18,VALID,0,VALID,95.0169,VALID,0,VALID,23.7507,VALID,97,VALID,0.507031,
2008-10-15, 03:39:04,VALID,1009.17,VALID,0,VALID,95.0093,VALID,0.105969,VALID,23.7525,VALID,108,VALID,0.593359,
2008-10-15, 03:40:04,VALID,1009.16,VALID,0,VALID,95.0245,VALID,0,VALID,23.7525,VALID,51,VALID,0.594141,
2008-10-15, 03:41:04,VALID,1009.14,VALID,0,VALID,94.9864,VALID,0,VALID,23.7312,VALID,90,VALID,0.745313,
2008-10-15, 03:42:04,VALID,1009.17,VALID,0,VALID,94.9864,VALID,0,VALID,23.7135,VALID,102,VALID,0.754687,
2008-10-15, 03:43:04,VALID,1009.15,VALID,0,VALID,94.9635,VALID,0,VALID,23.7135,VALID,100,VALID,0.744922,
2008-10-15, 03:44:04,VALID,1009.14,VALID,0,VALID,94.9711,VALID,0,VALID,23.7525,VALID,99,VALID,0.461719,
2008-10-15, 03:45:04,VALID,1009.15,VALID,0,VALID,94.9788,VALID,0,VALID,23.733,VALID,93,VALID,0.582812,